Powrót do katalogu

COSMOS 1360

AktywnyMilitariaLEO
NORAD 13163·PAYLOAD·🇷🇺 Russia

Wystrzelony May 6, 1982 z Plesetsk Cosmodrome

Loading…

Następne Przeloty (najbliższe 24 godziny)

TLE

ŚwieżeSource: Space-Track

Epoka: Sep 14, 2026, 19:35 UTC

1 13163U 82040D   26257.81648493 -.00000001  00000-0  98121-4 0  9990
2 13163  74.0125 186.3556 0023569 287.4935  99.5828 12.50200657748987

Śledź COSMOS 1360 w czasie rzeczywistym z AllMySat

Download on the App Store